Overview Statistics Trail Chart Weather Telemetry Raw packets
 

This is the latest recevied weather packets stored in our database for station/object KJ5FA-10. If no packets are shown the sender has not sent any weather packets the latest 10 day(s).

<< 12 13 14 15 16 17 18 >>
Time Temp. Humidity Pressure Rain* Wind** Luminosity Snow
1788171879 21.11° C 89% 1018 hPa 0 mm - - -
1788170978 21.67° C 88% 1017.7 hPa 0 mm - - -
1788169178 21.67° C 86% 1017.7 hPa 0 mm - - -
1788168279 21.67° C 87% 1017.7 hPa 0 mm - - -
1788166478 22.22° C 84% 1017.7 hPa 0 mm - - -
1788165578 22.22° C 83% 1017.6 hPa 0 mm - - -
1788164678 22.22° C 82% 1017.5 hPa 0 mm - - -
1788163778 22.78° C 80% 1017.4 hPa 0 mm - - -
1788162878 22.78° C 79% 1017.4 hPa 0 mm - - -
1788161978 22.78° C 77% 1017.4 hPa 0 mm - - -
1788161078 23.33° C 76% 1017.4 hPa 0 mm - - -
1788160357 23.33° C 74% 1017.3 hPa 0 mm - - -
1788160238 23.89° C 74% 1017.5 hPa 0 mm - - -
1788159281 23.89° C 73% 1017.5 hPa 0 mm - - -
1788158381 24.44° C 72% 1017.7 hPa 0 mm - - -
1788157482 24.44° C 71% 1017.4 hPa 0 mm - - -
1788156582 25° C 69% 1017.5 hPa 0 mm - - -
1788155681 25.56° C 66% 1017.6 hPa 0 mm - - -
1788154782 26.67° C 63% 1017.5 hPa 0 mm - - -
1788153881 26.67° C 58% 1017.4 hPa 0 mm - - -
1788152982 27.22° C 58% 1017.3 hPa 0 mm - - -
1788152082 27.22° C 57% 1017.3 hPa 0 mm - - -
1788151181 27.78° C 56% 1017.1 hPa 0 mm - - -
1788150281 27.78° C 55% 1017.3 hPa 0 mm - - -
1788149381 27.78° C 55% 1017.2 hPa 0 mm - - -

* Rain latest hour (hover to see other rain measurements)
** Current wind speed in m/s (hover to see current wind gust speed)